Time,TemperatureF,DewpointF,PressureIn,WindDirection,WindDirectionDegrees,WindSpeedMPH,WindSpeedGustMPH,Humidity,HourlyPrecipIn,Conditions,Clouds,dailyrainin,SoftwareType,DateUTC
2013-07-19 00:09:00,68.3,64.0,30.16,NNW,348,0.0,4.0,86,0.00,,,0.00,weatherlink.com 1.10,2013-07-19 06:09:00,
2013-07-19 00:24:00,68.6,64.0,30.16,NW,325,2.0,4.0,85,0.01,,,0.01,weatherlink.com 1.10,2013-07-19 06:24:00,
2013-07-19 00:39:00,68.5,64.0,30.16,NW,319,0.0,4.0,85,0.01,,,0.01,weatherlink.com 1.10,2013-07-19 06:39:00,
2013-07-19 00:54:00,68.7,64.0,30.16,NNW,336,3.0,5.0,85,0.01,,,0.01,weatherlink.com 1.10,2013-07-19 06:54:00,
2013-07-19 01:09:00,68.4,64.0,30.16,North,355,3.0,6.0,86,0.01,,,0.01,weatherlink.com 1.10,2013-07-19 07:09:00,
2013-07-19 01:25:00,68.4,64.0,30.16,NNW,333,1.0,5.0,86,0.00,,,0.01,weatherlink.com 1.10,2013-07-19 07:25:00,
2013-07-19 01:40:00,68.4,64.0,30.16,NNW,342,5.0,5.0,86,0.00,,,0.01,weatherlink.com 1.10,2013-07-19 07:40:00,
2013-07-19 01:55:00,68.4,64.0,30.15,NNW,331,3.0,6.0,86,0.00,,,0.01,weatherlink.com 1.10,2013-07-19 07:55:00,
2013-07-19 02:11:00,68.2,64.0,30.14,NNW,329,1.0,6.0,87,0.00,,,0.01,weatherlink.com 1.10,2013-07-19 08:11:00,
2013-07-19 02:26:00,68.0,64.0,30.15,NNW,338,2.0,4.0,87,0.01,,,0.02,weatherlink.com 1.10,2013-07-19 08:26:00,
2013-07-19 02:41:00,67.8,64.0,30.14,NW,319,1.0,4.0,88,0.01,,,0.02,weatherlink.com 1.10,2013-07-19 08:41:00,
2013-07-19 02:56:00,67.8,64.0,30.14,WNW,289,0.0,4.0,88,0.01,,,0.02,weatherlink.com 1.10,2013-07-19 08:56:00,
2013-07-19 03:11:00,67.7,64.0,30.13,WNW,289,0.0,2.0,88,0.01,,,0.02,weatherlink.com 1.10,2013-07-19 09:11:00,
2013-07-19 03:27:00,67.7,64.0,30.13,WNW,289,0.0,0.0,87,0.00,,,0.02,weatherlink.com 1.10,2013-07-19 09:27:00,
2013-07-19 03:42:00,67.6,64.0,30.12,WNW,289,0.0,0.0,88,0.00,,,0.02,weatherlink.com 1.10,2013-07-19 09:42:00,
2013-07-19 03:57:00,67.5,64.0,30.12,WNW,289,0.0,0.0,88,0.00,,,0.02,weatherlink.com 1.10,2013-07-19 09:57:00,
2013-07-19 04:12:00,67.5,64.0,30.12,WNW,289,0.0,0.0,89,0.00,,,0.02,weatherlink.com 1.10,2013-07-19 10:12:00,
2013-07-19 04:27:00,67.4,64.0,30.12,WNW,289,0.0,0.0,90,0.00,,,0.02,weatherlink.com 1.10,2013-07-19 10:27:00,
2013-07-19 04:42:00,67.0,64.0,30.11,WNW,289,0.0,0.0,91,0.00,,,0.02,weatherlink.com 1.10,2013-07-19 10:42:00,
2013-07-19 04:58:00,66.7,64.0,30.11,WNW,289,0.0,0.0,91,0.00,,,0.02,weatherlink.com 1.10,2013-07-19 10:58:00,
2013-07-19 05:13:00,66.7,64.0,30.11,WNW,289,0.0,0.0,91,0.00,,,0.02,weatherlink.com 1.10,2013-07-19 11:13:00,
2013-07-19 05:28:00,67.0,64.0,30.11,WNW,289,0.0,0.0,91,0.00,,,0.02,weatherlink.com 1.10,2013-07-19 11:28:00,
2013-07-19 05:43:00,67.2,64.0,30.11,WNW,289,0.0,1.0,90,0.00,,,0.02,weatherlink.com 1.10,2013-07-19 11:43:00,
2013-07-19 05:58:00,67.4,64.0,30.11,WNW,289,2.0,2.0,89,0.01,,,0.03,weatherlink.com 1.10,2013-07-19 11:58:00,
2013-07-19 06:13:00,67.7,64.0,30.11,WNW,289,0.0,3.0,88,0.01,,,0.03,weatherlink.com 1.10,2013-07-19 12:13:00,
2013-07-19 06:29:00,67.8,63.0,30.12,WNW,289,0.0,3.0,86,0.01,,,0.03,weatherlink.com 1.10,2013-07-19 12:29:00,
2013-07-19 06:44:00,68.0,64.0,30.12,ENE,63,0.0,2.0,87,0.01,,,0.03,weatherlink.com 1.10,2013-07-19 12:44:00,
2013-07-19 06:59:00,68.2,64.0,30.12,ENE,63,0.0,1.0,86,0.00,,,0.03,weatherlink.com 1.10,2013-07-19 12:59:00,
2013-07-19 07:14:00,68.3,64.0,30.12,ENE,63,0.0,0.0,85,0.00,,,0.03,weatherlink.com 1.10,2013-07-19 13:14:00,
2013-07-19 07:30:00,68.6,64.0,30.13,ENE,63,0.0,0.0,84,0.00,,,0.03,weatherlink.com 1.10,2013-07-19 13:30:00,
2013-07-19 07:45:00,68.5,63.0,30.14,ENE,63,0.0,0.0,84,0.00,,,0.03,weatherlink.com 1.10,2013-07-19 13:45:00,
2013-07-19 08:00:00,68.6,64.0,30.14,ENE,63,0.0,1.0,86,0.00,,,0.03,weatherlink.com 1.10,2013-07-19 14:00:00,
2013-07-19 08:16:00,69.5,64.0,30.14,ENE,63,0.0,0.0,83,0.00,,,0.03,weatherlink.com 1.10,2013-07-19 14:16:00,
2013-07-19 08:31:00,70.2,64.0,30.15,ENE,63,0.0,1.0,82,0.00,,,0.03,weatherlink.com 1.10,2013-07-19 14:31:00,
2013-07-19 08:46:00,70.5,65.0,30.15,ENE,63,0.0,4.0,82,0.00,,,0.03,weatherlink.com 1.10,2013-07-19 14:46:00,
2013-07-19 09:01:00,71.2,66.0,30.16,NE,40,2.0,5.0,83,0.00,,,0.03,weatherlink.com 1.10,2013-07-19 15:01:00,
2013-07-19 09:16:00,70.9,64.0,30.16,NNE,24,3.0,6.0,80,0.00,,,0.03,weatherlink.com 1.10,2013-07-19 15:16:00,
2013-07-19 09:32:00,71.6,66.0,30.16,ENE,76,0.0,4.0,82,0.00,,,0.03,weatherlink.com 1.10,2013-07-19 15:32:00,
2013-07-19 09:47:00,71.9,65.0,30.15,North,10,2.0,8.0,79,0.00,,,0.03,weatherlink.com 1.10,2013-07-19 15:47:00,
2013-07-19 10:02:00,74.8,65.0,30.15,NE,55,4.0,6.0,71,0.01,,,0.04,weatherlink.com 1.10,2013-07-19 16:02:00,
2013-07-19 10:17:00,75.8,65.0,30.15,ESE,123,4.0,8.0,70,0.01,,,0.04,weatherlink.com 1.10,2013-07-19 16:17:00,
2013-07-19 10:32:00,76.2,65.0,30.15,ESE,105,2.0,8.0,68,0.01,,,0.04,weatherlink.com 1.10,2013-07-19 16:32:00,
2013-07-19 10:47:00,75.3,65.0,30.15,ESE,109,0.0,7.0,70,0.01,,,0.04,weatherlink.com 1.10,2013-07-19 16:47:00,
2013-07-19 11:02:00,76.0,64.0,30.15,ESE,109,3.0,9.0,67,0.00,,,0.04,weatherlink.com 1.10,2013-07-19 17:02:00,
2013-07-19 11:18:00,76.4,65.0,30.14,ESE,107,3.0,7.0,68,0.00,,,0.04,weatherlink.com 1.10,2013-07-19 17:18:00,
2013-07-19 11:33:00,76.5,65.0,30.14,SE,138,4.0,10.0,67,0.00,,,0.04,weatherlink.com 1.10,2013-07-19 17:33:00,
2013-07-19 11:48:00,78.3,65.0,30.13,East,98,5.0,8.0,64,0.00,,,0.04,weatherlink.com 1.10,2013-07-19 17:48:00,
2013-07-19 12:05:00,78.5,64.0,30.13,East,99,5.0,13.0,62,0.00,,,0.04,weatherlink.com 1.10,2013-07-19 18:05:00,
2013-07-19 12:20:00,77.1,64.0,30.13,SSE,153,7.0,13.0,63,0.00,,,0.04,weatherlink.com 1.10,2013-07-19 18:20:00,
2013-07-19 12:35:00,78.0,63.0,30.12,SSE,149,11.0,15.0,59,0.00,,,0.04,weatherlink.com 1.10,2013-07-19 18:35:00,
2013-07-19 12:51:00,77.6,63.0,30.12,SE,143,9.0,12.0,61,0.00,,,0.04,weatherlink.com 1.10,2013-07-19 18:51:00,
2013-07-19 13:06:00,78.9,63.0,30.11,South,184,3.0,11.0,58,0.00,,,0.04,weatherlink.com 1.10,2013-07-19 19:06:00,
2013-07-19 13:21:00,79.7,62.0,30.11,South,186,1.0,9.0,55,0.00,,,0.04,weatherlink.com 1.10,2013-07-19 19:21:00,
2013-07-19 13:36:00,80.6,63.0,30.10,SE,140,6.0,10.0,56,0.00,,,0.04,weatherlink.com 1.10,2013-07-19 19:36:00,
2013-07-19 13:51:00,81.3,64.0,30.09,SE,126,4.0,11.0,56,0.00,,,0.04,weatherlink.com 1.10,2013-07-19 19:51:00,
2013-07-19 14:07:00,82.6,65.0,30.09,SE,138,3.0,10.0,56,0.00,,,0.04,weatherlink.com 1.10,2013-07-19 20:07:00,
2013-07-19 14:22:00,82.7,64.0,30.08,ESE,119,5.0,9.0,53,0.00,,,0.04,weatherlink.com 1.10,2013-07-19 20:22:00,
2013-07-19 14:37:00,83.3,63.0,30.08,ESE,117,8.0,10.0,50,0.00,,,0.04,weatherlink.com 1.10,2013-07-19 20:37:00,
2013-07-19 14:52:00,84.0,63.0,30.07,South,171,7.0,13.0,50,0.00,,,0.04,weatherlink.com 1.10,2013-07-19 20:52:00,
2013-07-19 15:07:00,86.0,62.0,30.07,South,170,6.0,15.0,44,0.01,,,0.05,weatherlink.com 1.10,2013-07-19 21:07:00,
2013-07-19 15:23:00,86.6,61.0,30.06,ESE,115,10.0,17.0,43,0.01,,,0.05,weatherlink.com 1.10,2013-07-19 21:23:00,
2013-07-19 15:38:00,85.4,61.0,30.05,South,180,7.0,15.0,44,0.01,,,0.05,weatherlink.com 1.10,2013-07-19 21:38:00,
2013-07-19 15:53:00,86.1,61.0,30.04,South,175,10.0,16.0,43,0.01,,,0.05,weatherlink.com 1.10,2013-07-19 21:53:00,
2013-07-19 16:08:00,87.0,61.0,30.04,South,174,8.0,14.0,42,0.00,,,0.05,weatherlink.com 1.10,2013-07-19 22:08:00,
2013-07-19 16:24:00,87.0,60.0,30.03,SE,136,11.0,15.0,41,0.00,,,0.05,weatherlink.com 1.10,2013-07-19 22:24:00,
2013-07-19 16:39:00,84.0,59.0,30.03,SSE,153,9.0,14.0,43,0.00,,,0.05,weatherlink.com 1.10,2013-07-19 22:39:00,
2013-07-19 16:54:00,82.7,60.0,30.02,ESE,110,10.0,12.0,46,0.00,,,0.05,weatherlink.com 1.10,2013-07-19 22:54:00,
2013-07-19 17:10:00,82.4,60.0,30.03,SSE,159,5.0,14.0,47,0.00,,,0.05,weatherlink.com 1.10,2013-07-19 23:10:00,
2013-07-19 17:25:00,82.0,60.0,30.02,South,186,7.0,13.0,47,0.00,,,0.05,weatherlink.com 1.10,2013-07-19 23:25:00,
2013-07-19 17:40:00,82.3,60.0,30.02,South,177,7.0,11.0,47,0.00,,,0.05,weatherlink.com 1.10,2013-07-19 23:40:00,
2013-07-19 17:55:00,82.7,61.0,30.01,SE,130,5.0,9.0,48,0.00,,,0.05,weatherlink.com 1.10,2013-07-19 23:55:00,
2013-07-19 18:10:00,82.2,62.0,30.00,SSE,162,9.0,13.0,50,0.00,,,0.05,weatherlink.com 1.10,2013-07-20 00:10:00,
2013-07-19 18:26:00,82.3,61.0,30.00,SSE,147,5.0,13.0,48,0.00,,,0.05,weatherlink.com 1.10,2013-07-20 00:26:00,
2013-07-19 18:41:00,81.8,60.0,30.01,SE,137,6.0,10.0,48,0.00,,,0.05,weatherlink.com 1.10,2013-07-20 00:41:00,
2013-07-19 18:56:00,80.9,60.0,30.01,South,173,4.0,11.0,49,0.00,,,0.05,weatherlink.com 1.10,2013-07-20 00:56:00,
2013-07-19 19:11:00,80.4,60.0,30.01,ESE,123,12.0,15.0,50,0.00,,,0.05,weatherlink.com 1.10,2013-07-20 01:11:00,
2013-07-19 19:26:00,80.3,61.0,30.02,SSE,148,10.0,11.0,52,0.00,,,0.05,weatherlink.com 1.10,2013-07-20 01:26:00,
2013-07-19 19:41:00,79.4,62.0,30.02,SSE,163,6.0,13.0,55,0.00,,,0.05,weatherlink.com 1.10,2013-07-20 01:41:00,
2013-07-19 19:56:00,78.6,62.0,30.02,SSE,155,6.0,14.0,56,0.00,,,0.05,weatherlink.com 1.10,2013-07-20 01:56:00,
2013-07-19 20:12:00,77.8,62.0,30.02,SE,142,4.0,13.0,58,0.00,,,0.05,weatherlink.com 1.10,2013-07-20 02:12:00,
2013-07-19 20:27:00,77.3,62.0,30.03,SE,136,4.0,9.0,60,0.00,,,0.05,weatherlink.com 1.10,2013-07-20 02:27:00,
2013-07-19 20:42:00,76.9,62.0,30.03,SE,132,4.0,10.0,61,0.00,,,0.05,weatherlink.com 1.10,2013-07-20 02:42:00,
2013-07-19 20:57:00,76.5,63.0,30.04,ESE,103,7.0,9.0,62,0.00,,,0.05,weatherlink.com 1.10,2013-07-20 02:57:00,
2013-07-19 21:12:00,76.2,63.0,30.05,SE,142,6.0,9.0,63,0.00,,,0.05,weatherlink.com 1.10,2013-07-20 03:12:00,
2013-07-19 21:27:00,76.0,62.0,30.05,ESE,113,4.0,9.0,63,0.00,,,0.05,weatherlink.com 1.10,2013-07-20 03:27:00,
2013-07-19 21:43:00,75.7,63.0,30.06,SE,134,5.0,7.0,64,0.00,,,0.05,weatherlink.com 1.10,2013-07-20 03:43:00,
2013-07-19 21:58:00,75.6,63.0,30.07,SSE,167,3.0,7.0,65,0.00,,,0.05,weatherlink.com 1.10,2013-07-20 03:58:00,
2013-07-19 22:13:00,75.3,64.0,30.08,SE,126,4.0,7.0,67,0.00,,,0.05,weatherlink.com 1.10,2013-07-20 04:13:00,
2013-07-19 22:28:00,75.1,63.0,30.08,SE,143,2.0,9.0,67,0.00,,,0.05,weatherlink.com 1.10,2013-07-20 04:28:00,
2013-07-19 22:43:00,74.8,64.0,30.08,SSE,155,2.0,9.0,68,0.00,,,0.05,weatherlink.com 1.10,2013-07-20 04:43:00,
2013-07-19 22:59:00,74.1,64.0,30.08,SSE,159,6.0,10.0,70,0.00,,,0.05,weatherlink.com 1.10,2013-07-20 04:59:00,
2013-07-19 23:14:00,73.6,64.0,30.08,SSE,167,4.0,7.0,72,0.00,,,0.05,weatherlink.com 1.10,2013-07-20 05:14:00,
2013-07-19 23:29:00,73.2,64.0,30.09,SSE,159,2.0,7.0,72,0.00,,,0.05,weatherlink.com 1.10,2013-07-20 05:29:00,
2013-07-19 23:44:00,73.0,63.0,30.09,SSE,155,4.0,7.0,71,0.00,,,0.05,weatherlink.com 1.10,2013-07-20 05:44:00,